Time,TemperatureF,DewpointF,PressureIn,WindDirection,WindDirectionDegrees,WindSpeedMPH,WindSpeedGustMPH,Humidity,HourlyPrecipIn,Conditions,Clouds,dailyrainin,SoftwareType,DateUTC
2013-11-11 00:08:00,60.4,30.0,30.05,NNE,28,4.0,5.0,32,0.00,,,0.00,weatherlink.com 1.10,2013-11-11 07:08:00,
2013-11-11 00:26:00,60.6,30.0,30.04,NNE,20,2.0,3.0,31,0.00,,,0.00,weatherlink.com 1.10,2013-11-11 07:26:00,
2013-11-11 00:43:00,61.1,30.0,30.04,NE,34,2.0,3.0,31,0.00,,,0.00,weatherlink.com 1.10,2013-11-11 07:43:00,
2013-11-11 01:00:00,60.0,30.0,30.04,NNE,20,3.0,4.0,32,0.00,,,0.00,weatherlink.com 1.10,2013-11-11 08:00:00,
2013-11-11 01:17:00,59.4,29.0,30.05,NNE,23,4.0,4.0,32,0.00,,,0.00,weatherlink.com 1.10,2013-11-11 08:17:00,
2013-11-11 01:35:00,59.0,30.0,30.05,NNE,23,3.0,4.0,33,0.00,,,0.00,weatherlink.com 1.10,2013-11-11 08:35:00,
2013-11-11 01:53:00,58.6,29.0,30.04,NNE,27,2.0,4.0,33,0.00,,,0.00,weatherlink.com 1.10,2013-11-11 08:53:00,
2013-11-11 02:09:00,58.5,29.0,30.04,North,352,1.0,2.0,33,0.00,,,0.00,weatherlink.com 1.10,2013-11-11 09:09:00,
2013-11-11 02:27:00,58.4,29.0,30.04,NNW,347,0.0,2.0,33,0.00,,,0.00,weatherlink.com 1.10,2013-11-11 09:27:00,
2013-11-11 02:44:00,57.7,29.0,30.04,NNE,32,2.0,4.0,34,0.00,,,0.00,weatherlink.com 1.10,2013-11-11 09:44:00,
2013-11-11 03:02:00,57.6,29.0,30.03,NE,34,3.0,4.0,34,0.00,,,0.00,weatherlink.com 1.10,2013-11-11 10:02:00,
2013-11-11 03:19:00,56.5,29.0,30.04,NNE,29,1.0,3.0,35,0.00,,,0.00,weatherlink.com 1.10,2013-11-11 10:19:00,
2013-11-11 03:36:00,57.0,29.0,30.04,NNE,23,0.0,2.0,35,0.00,,,0.00,weatherlink.com 1.10,2013-11-11 10:36:00,
2013-11-11 03:53:00,57.1,29.0,30.04,NNE,19,2.0,3.0,34,0.00,,,0.00,weatherlink.com 1.10,2013-11-11 10:53:00,
2013-11-11 04:11:00,56.2,29.0,30.04,NNE,31,3.0,4.0,36,0.00,,,0.00,weatherlink.com 1.10,2013-11-11 11:11:00,
2013-11-11 04:28:00,55.9,29.0,30.04,NNE,32,3.0,3.0,36,0.00,,,0.00,weatherlink.com 1.10,2013-11-11 11:28:00,
2013-11-11 04:45:00,56.0,29.0,30.04,NE,43,0.0,3.0,36,0.00,,,0.00,weatherlink.com 1.10,2013-11-11 11:45:00,
2013-11-11 05:02:00,55.7,30.0,30.04,NNE,25,4.0,4.0,37,0.00,,,0.00,weatherlink.com 1.10,2013-11-11 12:02:00,
2013-11-11 05:20:00,55.7,30.0,30.05,NNE,17,2.0,3.0,37,0.00,,,0.00,weatherlink.com 1.10,2013-11-11 12:20:00,
2013-11-11 05:37:00,55.6,29.0,30.05,NE,35,4.0,4.0,36,0.00,,,0.00,weatherlink.com 1.10,2013-11-11 12:37:00,
2013-11-11 05:55:00,55.5,29.0,30.05,NNE,25,4.0,5.0,36,0.00,,,0.00,weatherlink.com 1.10,2013-11-11 12:55:00,
2013-11-11 06:11:00,55.2,29.0,30.05,NNE,19,4.0,5.0,37,0.00,,,0.00,weatherlink.com 1.10,2013-11-11 13:11:00,
2013-11-11 06:29:00,55.0,29.0,30.06,NNE,33,2.0,3.0,37,0.00,,,0.00,weatherlink.com 1.10,2013-11-11 13:29:00,
2013-11-11 06:46:00,54.6,29.0,30.06,NNE,32,4.0,5.0,38,0.00,,,0.00,weatherlink.com 1.10,2013-11-11 13:46:00,
2013-11-11 07:04:00,54.5,29.0,30.07,NNE,24,4.0,5.0,38,0.00,,,0.00,weatherlink.com 1.10,2013-11-11 14:04:00,
2013-11-11 07:21:00,55.1,29.0,30.07,NNE,20,3.0,6.0,37,0.00,,,0.00,weatherlink.com 1.10,2013-11-11 14:21:00,
2013-11-11 07:38:00,55.9,30.0,30.08,NNE,20,3.0,4.0,37,0.00,,,0.00,weatherlink.com 1.10,2013-11-11 14:38:00,
2013-11-11 07:55:00,57.6,30.0,30.08,NNE,26,1.0,3.0,35,0.00,,,0.00,weatherlink.com 1.10,2013-11-11 14:55:00,
2013-11-11 08:13:00,59.4,31.0,30.09,North,4,1.0,2.0,34,0.00,,,0.00,weatherlink.com 1.10,2013-11-11 15:13:00,
2013-11-11 08:30:00,61.1,31.0,30.09,NNE,27,0.0,3.0,32,0.00,,,0.00,weatherlink.com 1.10,2013-11-11 15:30:00,
2013-11-11 08:47:00,62.7,31.0,30.10,WSW,250,1.0,2.0,30,0.00,,,0.00,weatherlink.com 1.10,2013-11-11 15:47:00,
2013-11-11 09:04:00,62.6,30.0,30.10,West,261,0.0,3.0,29,0.00,,,0.00,weatherlink.com 1.10,2013-11-11 16:04:00,
2013-11-11 09:20:00,65.5,30.0,30.10,SSW,200,0.0,1.0,27,0.00,,,0.00,weatherlink.com 1.10,2013-11-11 16:20:00,
2013-11-11 09:35:00,66.8,31.0,30.10,SSW,209,1.0,2.0,26,0.00,,,0.00,weatherlink.com 1.10,2013-11-11 16:35:00,
2013-11-11 09:50:00,66.7,31.0,30.10,SW,215,0.0,3.0,26,0.00,,,0.00,weatherlink.com 1.10,2013-11-11 16:50:00,
2013-11-11 10:06:00,66.9,33.0,30.10,SW,231,2.0,5.0,28,0.00,,,0.00,weatherlink.com 1.10,2013-11-11 17:06:00,
2013-11-11 10:22:00,68.1,33.0,30.10,SSW,208,1.0,4.0,27,0.00,,,0.00,weatherlink.com 1.10,2013-11-11 17:22:00,
2013-11-11 10:40:00,68.8,32.0,30.10,SW,216,1.0,5.0,26,0.00,,,0.00,weatherlink.com 1.10,2013-11-11 17:40:00,
2013-11-11 10:58:00,69.8,32.0,30.09,WSW,240,3.0,5.0,25,0.00,,,0.00,weatherlink.com 1.10,2013-11-11 17:58:00,
2013-11-11 11:14:00,71.1,32.0,30.09,South,176,1.0,4.0,24,0.00,,,0.00,weatherlink.com 1.10,2013-11-11 18:14:00,
2013-11-11 11:32:00,72.6,33.0,30.08,SW,220,0.0,4.0,23,0.00,,,0.00,weatherlink.com 1.10,2013-11-11 18:32:00,
2013-11-11 11:48:00,73.5,32.0,30.08,SW,229,3.0,5.0,22,0.00,,,0.00,weatherlink.com 1.10,2013-11-11 18:48:00,
2013-11-11 12:03:00,74.2,32.0,30.07,WSW,237,2.0,7.0,21,0.00,,,0.00,weatherlink.com 1.10,2013-11-11 19:03:00,
2013-11-11 12:18:00,74.9,32.0,30.07,SSE,155,1.0,6.0,21,0.00,,,0.00,weatherlink.com 1.10,2013-11-11 19:18:00,
2013-11-11 12:33:00,75.8,33.0,30.06,West,273,2.0,5.0,21,0.00,,,0.00,weatherlink.com 1.10,2013-11-11 19:33:00,
2013-11-11 12:48:00,77.7,32.0,30.05,SW,226,3.0,5.0,19,0.00,,,0.00,weatherlink.com 1.10,2013-11-11 19:48:00,
2013-11-11 13:03:00,79.0,33.0,30.04,SSW,195,1.0,6.0,19,0.00,,,0.00,weatherlink.com 1.10,2013-11-11 20:03:00,
2013-11-11 13:18:00,80.2,30.0,30.02,West,273,5.0,7.0,16,0.00,,,0.00,weatherlink.com 1.10,2013-11-11 20:18:00,
2013-11-11 13:34:00,80.6,30.0,30.02,West,264,6.0,11.0,16,0.00,,,0.00,weatherlink.com 1.10,2013-11-11 20:34:00,
2013-11-11 13:52:00,81.3,31.0,30.01,WSW,242,6.0,11.0,16,0.00,,,0.00,weatherlink.com 1.10,2013-11-11 20:52:00,
2013-11-11 14:09:00,81.9,30.0,30.00,WNW,283,4.0,11.0,15,0.00,,,0.00,weatherlink.com 1.10,2013-11-11 21:09:00,
2013-11-11 14:27:00,83.2,29.0,30.00,WNW,298,8.0,12.0,14,0.00,,,0.00,weatherlink.com 1.10,2013-11-11 21:27:00,
2013-11-11 14:45:00,83.4,29.0,30.00,West,277,10.0,14.0,14,0.00,,,0.00,weatherlink.com 1.10,2013-11-11 21:45:00,
2013-11-11 15:01:00,83.9,28.0,29.99,WNW,301,7.0,12.0,13,0.00,,,0.00,weatherlink.com 1.10,2013-11-11 22:01:00,
2013-11-11 15:19:00,84.1,28.0,29.99,WSW,257,4.0,12.0,13,0.00,,,0.00,weatherlink.com 1.10,2013-11-11 22:19:00,
2013-11-11 15:36:00,84.5,28.0,29.99,West,272,10.0,12.0,13,0.00,,,0.00,weatherlink.com 1.10,2013-11-11 22:36:00,
2013-11-11 15:54:00,84.8,29.0,29.99,WNW,283,7.0,10.0,13,0.00,,,0.00,weatherlink.com 1.10,2013-11-11 22:54:00,
2013-11-11 16:10:00,84.9,32.0,29.99,WSW,242,3.0,7.0,15,0.00,,,0.00,weatherlink.com 1.10,2013-11-11 23:10:00,
2013-11-11 16:28:00,84.5,30.0,29.99,WSW,238,1.0,7.0,14,0.00,,,0.00,weatherlink.com 1.10,2013-11-11 23:28:00,
2013-11-11 16:45:00,84.5,27.0,29.99,NW,314,4.0,9.0,12,0.00,,,0.00,weatherlink.com 1.10,2013-11-11 23:45:00,
2013-11-11 17:03:00,84.0,28.0,29.99,WNW,293,5.0,7.0,13,0.00,,,0.00,weatherlink.com 1.10,2013-11-12 00:03:00,
2013-11-11 17:20:00,83.0,27.0,29.99,WNW,293,4.0,9.0,13,0.00,,,0.00,weatherlink.com 1.10,2013-11-12 00:20:00,
2013-11-11 17:37:00,81.3,28.0,29.99,WNW,296,2.0,7.0,14,0.00,,,0.00,weatherlink.com 1.10,2013-11-12 00:37:00,
2013-11-11 17:54:00,80.1,27.0,30.00,WNW,285,4.0,6.0,14,0.00,,,0.00,weatherlink.com 1.10,2013-11-12 00:54:00,
2013-11-11 18:12:00,79.3,28.0,30.00,WNW,287,4.0,8.0,15,0.00,,,0.00,weatherlink.com 1.10,2013-11-12 01:12:00,
2013-11-11 18:28:00,78.7,27.0,30.01,WNW,290,4.0,7.0,15,0.00,,,0.00,weatherlink.com 1.10,2013-11-12 01:28:00,
2013-11-11 18:46:00,77.6,26.0,30.01,NNW,334,1.0,5.0,15,0.00,,,0.00,weatherlink.com 1.10,2013-11-12 01:46:00,
2013-11-11 19:03:00,75.6,28.0,30.01,NNW,342,1.0,2.0,17,0.00,,,0.00,weatherlink.com 1.10,2013-11-12 02:03:00,
2013-11-11 19:21:00,76.2,27.0,30.02,NW,313,2.0,4.0,16,0.00,,,0.00,weatherlink.com 1.10,2013-11-12 02:21:00,
2013-11-11 19:37:00,75.2,27.0,30.02,NW,322,1.0,2.0,17,0.00,,,0.00,weatherlink.com 1.10,2013-11-12 02:37:00,
2013-11-11 19:55:00,74.1,28.0,30.02,WSW,255,1.0,3.0,18,0.00,,,0.00,weatherlink.com 1.10,2013-11-12 02:55:00,
2013-11-11 20:12:00,72.7,27.0,30.02,SSW,212,0.0,1.0,18,0.00,,,0.00,weatherlink.com 1.10,2013-11-12 03:12:00,
2013-11-11 20:30:00,71.5,27.0,30.03,SW,217,0.0,1.0,19,0.00,,,0.00,weatherlink.com 1.10,2013-11-12 03:30:00,
2013-11-11 20:47:00,70.2,28.0,30.04,WSW,252,0.0,1.0,21,0.00,,,0.00,weatherlink.com 1.10,2013-11-12 03:47:00,
2013-11-11 21:04:00,69.4,29.0,30.04,NNE,21,2.0,3.0,22,0.00,,,0.00,weatherlink.com 1.10,2013-11-12 04:04:00,
2013-11-11 21:21:00,68.3,29.0,30.05,NE,40,1.0,2.0,23,0.00,,,0.00,weatherlink.com 1.10,2013-11-12 04:21:00,
2013-11-11 21:39:00,67.4,29.0,30.05,NE,39,1.0,3.0,24,0.00,,,0.00,weatherlink.com 1.10,2013-11-12 04:39:00,
2013-11-11 21:55:00,66.9,29.0,30.05,NE,49,1.0,2.0,24,0.00,,,0.00,weatherlink.com 1.10,2013-11-12 04:55:00,
2013-11-11 22:13:00,66.0,28.0,30.05,NE,36,0.0,2.0,24,0.00,,,0.00,weatherlink.com 1.10,2013-11-12 05:13:00,
2013-11-11 22:30:00,65.6,28.0,30.06,NE,39,2.0,4.0,24,0.00,,,0.00,weatherlink.com 1.10,2013-11-12 05:30:00,
2013-11-11 22:48:00,65.6,28.0,30.07,NNE,31,2.0,5.0,24,0.00,,,0.00,weatherlink.com 1.10,2013-11-12 05:48:00,
2013-11-11 23:04:00,65.4,28.0,30.07,NNE,24,4.0,4.0,24,0.00,,,0.00,weatherlink.com 1.10,2013-11-12 06:04:00,
2013-11-11 23:22:00,65.1,28.0,30.08,NNE,13,2.0,5.0,25,0.00,,,0.00,weatherlink.com 1.10,2013-11-12 06:22:00,
2013-11-11 23:39:00,64.8,28.0,30.08,North,349,2.0,4.0,25,0.00,,,0.00,weatherlink.com 1.10,2013-11-12 06:39:00,
2013-11-11 23:57:00,64.4,27.0,30.08,NNE,27,4.0,5.0,24,0.00,,,0.00,weatherlink.com 1.10,2013-11-12 06:57:00,